When you browse on this site, cookies collect data to enhance your experience and personalize the content and advertising you see.
Visit our Privacy Policy to learn more. By continuing to use the site, you agree to this use of cookies and data.
  • In Hungary
  • List of Countries
  • For 7 days
  • Water Temperature
  • Satellite Maps
  • Weather Map
  • News
  • Weather Widgets
  • user-avatar
    Login

    Hourly Weather Apizaco

    Today, 22 February, Friday

    Time Temperature Precipitation Wind Pressure Humidity
    00:00 +13°C° 0 mm 1 mps 568 mmHg 48%
    01:00 +12°C° 0 mm 1 mps 567 mmHg 49%
    02:00 +12°C° 0 mm 1 mps 567 mmHg 50%
    03:00 +11°C° 0 mm 1 mps 567 mmHg 50%
    04:00 +11°C° 0 mm 1 mps 567 mmHg 49%
    05:00 +11°C° 0 mm 1 mps 567 mmHg 44%
    06:00 +12°C° 0 mm 1 mps 568 mmHg 39%
    07:00 +14°C° 0 mm 1 mps 569 mmHg 35%
    08:00 +16°C° 0 mm 1 mps 571 mmHg 31%
    09:00 +19°C° 0 mm 1 mps 571 mmHg 27%
    10:00 +21°C° 0 mm 1 mps 572 mmHg 24%
    11:00 +23°C° 0 mm 2 mps 573 mmHg 21%
    12:00 +24°C° 0 mm 2 mps 573 mmHg 20%
    13:00 +25°C° 0 mm 2 mps 573 mmHg 19%
    14:00 +26°C° 0 mm 3 mps 573 mmHg 18%
    15:00 +25°C° 0 mm 3 mps 572 mmHg 22%
    16:00 +24°C° 0 mm 3 mps 572 mmHg 25%
    17:00 +21°C° 0 mm 3 mps 571 mmHg 28%
    18:00 +20°C° 0 mm 3 mps 571 mmHg 34%
    19:00 +18°C° 0 mm 2 mps 571 mmHg 39%
    20:00 +16°C° 0 mm 1 mps 570 mmHg 44%
    21:00 +16°C° 0 mm 1 mps 570 mmHg 45%
    22:00 +15°C° 0 mm 1 mps 570 mmHg 46%
    23:00 +15°C° 0 mm 1 mps 570 mmHg 48%

    Tomorrow, 23 February, Saturday

    Time Temperature Precipitation Wind Pressure Humidity
    00:00 +14°C° 0 mm 1 mps 570 mmHg 50%
    01:00 +14°C° 0 mm 1 mps 569 mmHg 53%
    02:00 +13°C° 0 mm 1 mps 569 mmHg 56%
    03:00 +13°C° 0 mm 1 mps 569 mmHg 58%
    04:00 +11°C° 0 mm 0 mps 568 mmHg 60%
    05:00 +11°C° 0 mm 0 mps 568 mmHg 62%
    06:00 +13°C° 0 mm 1 mps 569 mmHg 58%
    07:00 +15°C° 0 mm 1 mps 571 mmHg 53%
    08:00 +16°C° 0 mm 1 mps 572 mmHg 48%
    09:00 +19°C° 0 mm 1 mps 573 mmHg 42%
    10:00 +21°C° 0 mm 1 mps 573 mmHg 36%
    11:00 +21°C° 0 mm 0 mps 574 mmHg 29%
    12:00 +24°C° 0 mm 1 mps 574 mmHg 27%
    13:00 +25°C° 0 mm 1 mps 573 mmHg 25%
    14:00 +25°C° 0 mm 2 mps 573 mmHg 23%
    15:00 +24°C° 0 mm 2 mps 573 mmHg 27%
    16:00 +23°C° 0 mm 2 mps 572 mmHg 32%
    17:00 +21°C° 0 mm 3 mps 572 mmHg 37%
    18:00 +19°C° 0.1 mm 3 mps 572 mmHg 42%
    19:00 +18°C° 0.1 mm 3 mps 572 mmHg 47%
    20:00 +17°C° 0.1 mm 3 mps 572 mmHg 53%
    21:00 +16°C° 0 mm 3 mps 572 mmHg 56%
    22:00 +15°C° 0 mm 2 mps 572 mmHg 60%
    23:00 +14°C° 0 mm 2 mps 572 mmHg 63%

    Day after tomorrow, 24 February, Sunday

    Time Temperature Precipitation Wind Pressure Humidity
    00:00 +14°C° 0 mm 2 mps 572 mmHg 66%
    01:00 +14°C° 0 mm 2 mps 571 mmHg 68%
    02:00 +13°C° 0 mm 2 mps 571 mmHg 71%
    03:00 +13°C° 0 mm 2 mps 571 mmHg 74%
    04:00 +12°C° 0 mm 2 mps 570 mmHg 78%
    05:00 +12°C° 0 mm 2 mps 570 mmHg 82%
    06:00 +13°C° 0 mm 2 mps 571 mmHg 77%
    07:00 +13°C° 0 mm 3 mps 572 mmHg 73%
    08:00 +14°C° 0 mm 3 mps 573 mmHg 69%
    09:00 +16°C° 0 mm 3 mps 574 mmHg 63%
    10:00 +18°C° 0 mm 3 mps 575 mmHg 57%
    11:00 +19°C° 0 mm 3 mps 575 mmHg 50%
    12:00 +19°C° 0.2 mm 3 mps 574 mmHg 51%
    13:00 +19°C° 0.2 mm 3 mps 574 mmHg 52%
    14:00 +19°C° 0.2 mm 3 mps 573 mmHg 52%
    15:00 +18°C° 0.3 mm 3 mps 573 mmHg 57%
    16:00 +17°C° 0.3 mm 3 mps 572 mmHg 62%
    17:00 +15°C° 0.3 mm 4 mps 572 mmHg 66%
    18:00 +14°C° 0 mm 3 mps 572 mmHg 70%
    19:00 +13°C° 0 mm 3 mps 572 mmHg 74%
    20:00 +12°C° 0 mm 3 mps 572 mmHg 78%
    21:00 +11°C° 0 mm 3 mps 572 mmHg 79%
    22:00 +12°C° 0 mm 2 mps 572 mmHg 80%
    23:00 +12°C° 0 mm 2 mps 572 mmHg 82%

    25 February, Monday

    Time Temperature Precipitation Wind Pressure Humidity
    00:00 +10°C° 0 mm 2 mps 571 mmHg 83%
    01:00 +10°C° 0 mm 2 mps 571 mmHg 85%
    02:00 +11°C° 0 mm 1 mps 570 mmHg 86%
    03:00 +11°C° 0 mm 1 mps 570 mmHg 87%
    04:00 +10°C° 0 mm 1 mps 570 mmHg 87%
    05:00 +10°C° 0 mm 1 mps 570 mmHg 88%
    06:00 +12°C° 0 mm 1 mps 571 mmHg 81%
    07:00 +13°C° 0 mm 1 mps 572 mmHg 75%
    08:00 +14°C° 0 mm 1 mps 574 mmHg 68%
    09:00 +16°C° 0 mm 1 mps 574 mmHg 59%
    10:00 +19°C° 0 mm 1 mps 575 mmHg 51%
    11:00 +21°C° 0 mm 1 mps 576 mmHg 42%
    12:00 +21°C° 0.1 mm 2 mps 575 mmHg 40%
    13:00 +21°C° 0.1 mm 2 mps 575 mmHg 38%
    14:00 +23°C° 0.1 mm 2 mps 574 mmHg 36%
    15:00 +21°C° 0.7 mm 2 mps 574 mmHg 41%
    16:00 +20°C° 0.7 mm 2 mps 573 mmHg 45%
    17:00 +19°C° 0.7 mm 2 mps 573 mmHg 49%
    18:00 +19°C° 0.6 mm 1 mps 573 mmHg 56%
    19:00 +18°C° 0.6 mm 1 mps 573 mmHg 62%
    20:00 +15°C° 0.6 mm 1 mps 573 mmHg 69%
    21:00 +15°C° 0.8 mm 1 mps 573 mmHg 71%
    22:00 +15°C° 0.8 mm 1 mps 573 mmHg 73%
    23:00 +14°C° 0.8 mm 2 mps 572 mmHg 75%

    26 February, Tuesday

    Time Temperature Precipitation Wind Pressure Humidity
    00:00 +14°C° 0 mm 1 mps 572 mmHg 75%
    01:00 +14°C° 0 mm 1 mps 571 mmHg 75%
    02:00 +12°C° 0 mm 0 mps 571 mmHg 75%
    03:00 +12°C° 0 mm 0 mps 571 mmHg 76%
    04:00 +12°C° 0 mm 1 mps 571 mmHg 76%
    05:00 +12°C° 0 mm 1 mps 571 mmHg 77%
    06:00 +13°C° 0 mm 1 mps 572 mmHg 71%
    07:00 +15°C° 0 mm 1 mps 573 mmHg 65%
    08:00 +16°C° 0 mm 1 mps 574 mmHg 59%
    09:00 +19°C° 0 mm 1 mps 574 mmHg 51%
    10:00 +21°C° 0 mm 1 mps 575 mmHg 43%
    11:00 +23°C° 0 mm 1 mps 575 mmHg 36%
    12:00 +23°C° 0 mm 1 mps 575 mmHg 34%
    13:00 +24°C° 0 mm 1 mps 574 mmHg 31%
    14:00 +24°C° 0 mm 2 mps 574 mmHg 29%
    15:00 +23°C° 0.3 mm 1 mps 573 mmHg 35%
    16:00 +22°C° 0.3 mm 1 mps 573 mmHg 40%
    17:00 +20°C° 0.3 mm 1 mps 572 mmHg 46%
    18:00 +19°C° 0.4 mm 1 mps 572 mmHg 51%
    19:00 +18°C° 0.4 mm 1 mps 572 mmHg 56%
    20:00 +16°C° 0.4 mm 1 mps 572 mmHg 61%
    21:00 +16°C° 0.3 mm 1 mps 572 mmHg 63%
    22:00 +15°C° 0.3 mm 1 mps 572 mmHg 65%
    23:00 +15°C° 0.3 mm 1 mps 572 mmHg 66%

    27 February, Wednesday

    Time Temperature Precipitation Wind Pressure Humidity
    00:00 +14°C° 0.2 mm 1 mps 571 mmHg 67%
    01:00 +14°C° 0.2 mm 1 mps 570 mmHg 68%
    02:00 +14°C° 0.2 mm 1 mps 570 mmHg 68%
    03:00 +13°C° 0 mm 1 mps 570 mmHg 68%
    04:00 +13°C° 0 mm 1 mps 570 mmHg 68%
    05:00 +13°C° 0 mm 1 mps 570 mmHg 68%
    06:00 +14°C° 0 mm 1 mps 571 mmHg 61%
    07:00 +16°C° 0 mm 1 mps 572 mmHg 54%
    08:00 +18°C° 0 mm 1 mps 573 mmHg 47%
    09:00 +19°C° 0 mm 2 mps 573 mmHg 39%
    10:00 +21°C° 0 mm 2 mps 574 mmHg 31%
    11:00 +24°C° 0 mm 2 mps 575 mmHg 24%
    12:00 +24°C° 0 mm 2 mps 574 mmHg 23%
    13:00 +25°C° 0 mm 3 mps 574 mmHg 22%
    14:00 +25°C° 0 mm 3 mps 573 mmHg 21%
    15:00 +24°C° 0 mm 3 mps 573 mmHg 25%
    16:00 +23°C° 0 mm 2 mps 572 mmHg 30%
    17:00 +23°C° 0 mm 2 mps 572 mmHg 34%
    18:00 +20°C° 0 mm 2 mps 572 mmHg 41%
    19:00 +20°C° 0 mm 1 mps 571 mmHg 49%
    20:00 +18°C° 0 mm 1 mps 571 mmHg 56%
    21:00 +16°C° 0 mm 1 mps 571 mmHg 57%
    22:00 +16°C° 0 mm 1 mps 571 mmHg 59%
    23:00 +15°C° 0 mm 1 mps 570 mmHg 60%
    Show more